owner,sensor,date,latitude,longitude,vertical_datum,sea_water_temperature,qcFlag 
SCCF RECON,ioos:station:SCCF:11:1,2017-10-01T04:00:00Z,26.4679,-82.0631,1.74,30.03,2 
SCCF RECON,ioos:station:SCCF:11:1,2017-10-01T05:00:00Z,26.4679,-82.0631,1.74,30.09,2 
SCCF RECON,ioos:station:SCCF:11:1,2017-10-01T12:00:00Z,26.4679,-82.0631,1.74,29.34,2 
SCCF RECON,ioos:station:SCCF:11:1,2017-10-01T13:00:00Z,26.4679,-82.0631,1.74,29.87,2 
SCCF RECON,ioos:station:SCCF:11:1,2017-10-01T14:00:00Z,26.4679,-82.0631,1.74,29.77,2 
SCCF RECON,ioos:station:SCCF:11:1,2017-10-01T15:00:00Z,26.4679,-82.0631,1.74,29.82,2 
SCCF RECON,ioos:station:SCCF:11:1,2017-10-01T16:00:00Z,26.4679,-82.0631,1.74,29.9,2 
SCCF RECON,ioos:station:SCCF:11:1,2017-10-01T17:00:00Z,26.4679,-82.0631,1.74,29.89,2 
SCCF RECON,ioos:station:SCCF:11:1,2017-10-01T18:00:00Z,26.4679,-82.0631,1.74,30.16,2 
SCCF RECON,ioos:station:SCCF:11:1,2017-10-01T19:00:00Z,26.4679,-82.0631,1.74,30.27,2 
SCCF RECON,ioos:station:SCCF:11:1,2017-10-01T20:00:00Z,26.4679,-82.0631,1.74,30.59,2 
SCCF RECON,ioos:station:SCCF:11:1,2017-10-01T21:00:00Z,26.4679,-82.0631,1.74,30.77,2 
SCCF RECON,ioos:station:SCCF:11:1,2017-10-01T22:00:00Z,26.4679,-82.0631,1.74,30.71,2 
SCCF RECON,ioos:station:SCCF:11:1,2017-10-02T04:00:00Z,26.4679,-82.0631,1.74,30.17,2 
SCCF RECON,ioos:station:SCCF:11:1,2017-10-02T08:00:00Z,26.4679,-82.0631,1.74,29.59,2 
SCCF RECON,ioos:station:SCCF:11:1,2017-10-02T12:00:00Z,26.4679,-82.0631,1.74,28.61,2 
SCCF RECON,ioos:station:SCCF:11:1,2017-10-02T13:00:00Z,26.4679,-82.0631,1.74,28.66,2 
SCCF RECON,ioos:station:SCCF:11:1,2017-10-02T14:00:00Z,26.4679,-82.0631,1.74,29.24,2 
SCCF RECON,ioos:station:SCCF:11:1,2017-10-02T15:00:00Z,26.4679,-82.0631,1.74,29.08,2 
SCCF RECON,ioos:station:SCCF:11:1,2017-10-02T16:00:00Z,26.4679,-82.0631,1.74,29.11,2 
SCCF RECON,ioos:station:SCCF:11:1,2017-10-02T17:00:00Z,26.4679,-82.0631,1.74,29.18,2 
SCCF RECON,ioos:station:SCCF:11:1,2017-10-02T18:00:00Z,26.4679,-82.0631,1.74,29.33,2 
SCCF RECON,ioos:station:SCCF:11:1,2017-10-02T19:00:00Z,26.4679,-82.0631,1.74,29.67,2 
SCCF RECON,ioos:station:SCCF:11:1,2017-10-02T20:00:00Z,26.4679,-82.0631,1.74,29.85,2 
SCCF RECON,ioos:station:SCCF:11:1,2017-10-02T21:00:00Z,26.4679,-82.0631,1.74,29.81,2 
SCCF RECON,ioos:station:SCCF:11:1,2017-10-02T22:00:00Z,26.4679,-82.0631,1.74,29.65,2 
SCCF RECON,ioos:station:SCCF:11:1,2017-10-03T04:00:00Z,26.4679,-82.0631,1.74,28.62,2 
SCCF RECON,ioos:station:SCCF:11:1,2017-10-03T05:00:00Z,26.4679,-82.0631,1.74,28.69,2 
SCCF RECON,ioos:station:SCCF:11:1,2017-10-03T06:00:00Z,26.4679,-82.0631,1.74,28.56,2 
SCCF RECON,ioos:station:SCCF:11:1,2017-10-03T07:00:00Z,26.4679,-82.0631,1.74,28.45,2 
SCCF RECON,ioos:station:SCCF:11:1,2017-10-03T08:00:00Z,26.4679,-82.0631,1.74,28.09,2 
SCCF RECON,ioos:station:SCCF:11:1,2017-10-03T09:00:00Z,26.4679,-82.0631,1.74,28.1,2 
SCCF RECON,ioos:station:SCCF:11:1,2017-10-03T12:00:00Z,26.4679,-82.0631,1.74,27.58,2 
SCCF RECON,ioos:station:SCCF:11:1,2017-10-03T13:00:00Z,26.4679,-82.0631,1.74,27.61,2 
SCCF RECON,ioos:station:SCCF:11:1,2017-10-03T14:00:00Z,26.4679,-82.0631,1.74,27.71,2 
SCCF RECON,ioos:station:SCCF:11:1,2017-10-03T15:00:00Z,26.4679,-82.0631,1.74,27.78,2 
SCCF RECON,ioos:station:SCCF:11:1,2017-10-03T16:00:00Z,26.4679,-82.0631,1.74,27.74,2 
SCCF RECON,ioos:station:SCCF:11:1,2017-10-03T17:00:00Z,26.4679,-82.0631,1.74,27.96,2 
SCCF RECON,ioos:station:SCCF:11:1,2017-10-03T18:00:00Z,26.4679,-82.0631,1.74,27.88,2 
SCCF RECON,ioos:station:SCCF:11:1,2017-10-03T19:00:00Z,26.4679,-82.0631,1.74,28.07,2 
SCCF RECON,ioos:station:SCCF:11:1,2017-10-03T20:00:00Z,26.4679,-82.0631,1.74,28.29,2 
SCCF RECON,ioos:station:SCCF:11:1,2017-10-03T21:00:00Z,26.4679,-82.0631,1.74,28.28,2 
SCCF RECON,ioos:station:SCCF:11:1,2017-10-03T22:00:00Z,26.4679,-82.0631,1.74,28.22,2 
SCCF RECON,ioos:station:SCCF:11:1,2017-10-04T04:00:00Z,26.4679,-82.0631,1.74,27.72,2 
SCCF RECON,ioos:station:SCCF:11:1,2017-10-04T05:00:00Z,26.4679,-82.0631,1.74,27.51,2 
SCCF RECON,ioos:station:SCCF:11:1,2017-10-04T06:00:00Z,26.4679,-82.0631,1.74,27.56,2 
SCCF RECON,ioos:station:SCCF:11:1,2017-10-04T07:00:00Z,26.4679,-82.0631,1.74,27.63,2 
SCCF RECON,ioos:station:SCCF:11:1,2017-10-04T08:00:00Z,26.4679,-82.0631,1.74,27.14,2 
SCCF RECON,ioos:station:SCCF:11:1,2017-10-04T09:00:00Z,26.4679,-82.0631,1.74,27.05,2 
SCCF RECON,ioos:station:SCCF:11:1,2017-10-04T11:00:00Z,26.4679,-82.0631,1.74,26.82,2 
SCCF RECON,ioos:station:SCCF:11:1,2017-10-04T12:00:00Z,26.4679,-82.0631,1.74,26.7,2 
SCCF RECON,ioos:station:SCCF:11:1,2017-10-04T13:00:00Z,26.4679,-82.0631,1.74,26.92,2 
SCCF RECON,ioos:station:SCCF:11:1,2017-10-04T14:00:00Z,26.4679,-82.0631,1.74,27.05,2 
SCCF RECON,ioos:station:SCCF:11:1,2017-10-04T15:00:00Z,26.4679,-82.0631,1.74,27.13,2 
SCCF RECON,ioos:station:SCCF:11:1,2017-10-04T16:00:00Z,26.4679,-82.0631,1.74,27.25,2 
SCCF RECON,ioos:station:SCCF:11:1,2017-10-04T17:00:00Z,26.4679,-82.0631,1.74,27.34,2 
SCCF RECON,ioos:station:SCCF:11:1,2017-10-04T18:00:00Z,26.4679,-82.0631,1.74,27.42,2 
SCCF RECON,ioos:station:SCCF:11:1,2017-10-04T19:00:00Z,26.4679,-82.0631,1.74,27.5,2 
SCCF RECON,ioos:station:SCCF:11:1,2017-10-04T20:00:00Z,26.4679,-82.0631,1.74,27.79,2 
SCCF RECON,ioos:station:SCCF:11:1,2017-10-04T21:00:00Z,26.4679,-82.0631,1.74,28.05,2 
SCCF RECON,ioos:station:SCCF:11:1,2017-10-04T22:00:00Z,26.4679,-82.0631,1.74,27.82,2 
SCCF RECON,ioos:station:SCCF:11:1,2017-10-05T04:00:00Z,26.4679,-82.0631,1.74,27.21,2 
SCCF RECON,ioos:station:SCCF:11:1,2017-10-05T05:00:00Z,26.4679,-82.0631,1.74,27.33,2 
SCCF RECON,ioos:station:SCCF:11:1,2017-10-05T06:00:00Z,26.4679,-82.0631,1.74,27.29,2 
SCCF RECON,ioos:station:SCCF:11:1,2017-10-05T07:00:00Z,26.4679,-82.0631,1.74,27.21,2 
SCCF RECON,ioos:station:SCCF:11:1,2017-10-05T08:00:00Z,26.4679,-82.0631,1.74,26.77,2 
SCCF RECON,ioos:station:SCCF:11:1,2017-10-05T09:00:00Z,26.4679,-82.0631,1.74,26.51,2 
SCCF RECON,ioos:station:SCCF:11:1,2017-10-05T10:00:00Z,26.4679,-82.0631,1.74,26.56,2 
SCCF RECON,ioos:station:SCCF:11:1,2017-10-05T11:00:00Z,26.4679,-82.0631,1.74,26.35,2 
SCCF RECON,ioos:station:SCCF:11:1,2017-10-05T12:00:00Z,26.4679,-82.0631,1.74,26.36,2 
SCCF RECON,ioos:station:SCCF:11:1,2017-10-05T13:00:00Z,26.4679,-82.0631,1.74,26.33,2 
SCCF RECON,ioos:station:SCCF:11:1,2017-10-05T14:00:00Z,26.4679,-82.0631,1.74,26.47,2 
SCCF RECON,ioos:station:SCCF:11:1,2017-10-05T15:00:00Z,26.4679,-82.0631,1.74,26.67,2 
SCCF RECON,ioos:station:SCCF:11:1,2017-10-05T16:00:00Z,26.4679,-82.0631,1.74,26.63,2 
SCCF RECON,ioos:station:SCCF:11:1,2017-10-05T18:00:00Z,26.4679,-82.0631,1.74,26.85,2 
SCCF RECON,ioos:station:SCCF:11:1,2017-10-05T19:00:00Z,26.4679,-82.0631,1.74,27.07,2 
SCCF RECON,ioos:station:SCCF:11:1,2017-10-05T20:00:00Z,26.4679,-82.0631,1.74,27.26,2 
SCCF RECON,ioos:station:SCCF:11:1,2017-10-05T21:00:00Z,26.4679,-82.0631,1.74,27.08,2 
SCCF RECON,ioos:station:SCCF:11:1,2017-10-05T22:00:00Z,26.4679,-82.0631,1.74,27.03,2 
SCCF RECON,ioos:station:SCCF:11:1,2017-10-06T04:00:00Z,26.4679,-82.0631,1.74,27.2,2 
SCCF RECON,ioos:station:SCCF:11:1,2017-10-06T05:00:00Z,26.4679,-82.0631,1.74,27.27,2 
SCCF RECON,ioos:station:SCCF:11:1,2017-10-06T06:00:00Z,26.4679,-82.0631,1.74,27.29,2 
SCCF RECON,ioos:station:SCCF:11:1,2017-10-06T07:00:00Z,26.4679,-82.0631,1.74,27.33,2 
SCCF RECON,ioos:station:SCCF:11:1,2017-10-06T08:00:00Z,26.4679,-82.0631,1.74,27.4,2 
SCCF RECON,ioos:station:SCCF:11:1,2017-10-06T09:00:00Z,26.4679,-82.0631,1.74,26.75,2 
SCCF RECON,ioos:station:SCCF:11:1,2017-10-06T10:00:00Z,26.4679,-82.0631,1.74,26.48,2 
SCCF RECON,ioos:station:SCCF:11:1,2017-10-06T11:00:00Z,26.4679,-82.0631,1.74,26.45,2 
SCCF RECON,ioos:station:SCCF:11:1,2017-10-06T12:00:00Z,26.4679,-82.0631,1.74,26.5,2 
SCCF RECON,ioos:station:SCCF:11:1,2017-10-06T13:00:00Z,26.4679,-82.0631,1.74,26.65,2 
SCCF RECON,ioos:station:SCCF:11:1,2017-10-06T14:00:00Z,26.4679,-82.0631,1.74,26.9,2 
SCCF RECON,ioos:station:SCCF:11:1,2017-10-06T15:00:00Z,26.4679,-82.0631,1.74,27.14,2 
SCCF RECON,ioos:station:SCCF:11:1,2017-10-06T16:00:00Z,26.4679,-82.0631,1.74,27.15,2 
SCCF RECON,ioos:station:SCCF:11:1,2017-10-06T17:00:00Z,26.4679,-82.0631,1.74,27.21,2 
SCCF RECON,ioos:station:SCCF:11:1,2017-10-06T18:00:00Z,26.4679,-82.0631,1.74,27.24,2 
SCCF RECON,ioos:station:SCCF:11:1,2017-10-06T19:00:00Z,26.4679,-82.0631,1.74,27.37,2 
SCCF RECON,ioos:station:SCCF:11:1,2017-10-06T20:00:00Z,26.4679,-82.0631,1.74,27.56,2 
SCCF RECON,ioos:station:SCCF:11:1,2017-10-06T21:00:00Z,26.4679,-82.0631,1.74,27.6,2 
SCCF RECON,ioos:station:SCCF:11:1,2017-10-06T22:00:00Z,26.4679,-82.0631,1.74,27.68,2 
SCCF RECON,ioos:station:SCCF:11:1,2017-10-07T04:00:00Z,26.4679,-82.0631,1.74,27.73,2 
SCCF RECON,ioos:station:SCCF:11:1,2017-10-07T05:00:00Z,26.4679,-82.0631,1.74,27.79,2 
SCCF RECON,ioos:station:SCCF:11:1,2017-10-07T06:00:00Z,26.4679,-82.0631,1.74,27.8,2 
SCCF RECON,ioos:station:SCCF:11:1,2017-10-07T07:00:00Z,26.4679,-82.0631,1.74,27.86,2 
SCCF RECON,ioos:station:SCCF:11:1,2017-10-07T08:00:00Z,26.4679,-82.0631,1.74,27.84,2 
SCCF RECON,ioos:station:SCCF:11:1,2017-10-07T09:00:00Z,26.4679,-82.0631,1.74,27.34,2 
SCCF RECON,ioos:station:SCCF:11:1,2017-10-07T10:00:00Z,26.4679,-82.0631,1.74,27.12,2 
SCCF RECON,ioos:station:SCCF:11:1,2017-10-07T11:00:00Z,26.4679,-82.0631,1.74,27.09,2 
SCCF RECON,ioos:station:SCCF:11:1,2017-10-07T12:00:00Z,26.4679,-82.0631,1.74,27.33,2 
SCCF RECON,ioos:station:SCCF:11:1,2017-10-07T13:00:00Z,26.4679,-82.0631,1.74,27.27,2 
SCCF RECON,ioos:station:SCCF:11:1,2017-10-07T14:00:00Z,26.4679,-82.0631,1.74,27.32,2 
SCCF RECON,ioos:station:SCCF:11:1,2017-10-07T15:00:00Z,26.4679,-82.0631,1.74,27.51,2 
SCCF RECON,ioos:station:SCCF:11:1,2017-10-07T16:00:00Z,26.4679,-82.0631,1.74,27.63,2 
SCCF RECON,ioos:station:SCCF:11:1,2017-10-07T17:00:00Z,26.4679,-82.0631,1.74,27.69,2 
SCCF RECON,ioos:station:SCCF:11:1,2017-10-07T18:00:00Z,26.4679,-82.0631,1.74,27.81,2 
SCCF RECON,ioos:station:SCCF:11:1,2017-10-07T19:00:00Z,26.4679,-82.0631,1.74,27.93,2 
SCCF RECON,ioos:station:SCCF:11:1,2017-10-07T20:00:00Z,26.4679,-82.0631,1.74,27.98,2 
SCCF RECON,ioos:station:SCCF:11:1,2017-10-07T21:00:00Z,26.4679,-82.0631,1.74,28.06,2 
SCCF RECON,ioos:station:SCCF:11:1,2017-10-07T22:00:00Z,26.4679,-82.0631,1.74,28.21,2 
SCCF RECON,ioos:station:SCCF:11:1,2017-10-08T04:00:00Z,26.4679,-82.0631,1.74,28.25,2 
SCCF RECON,ioos:station:SCCF:11:1,2017-10-08T05:00:00Z,26.4679,-82.0631,1.74,28.06,2 
SCCF RECON,ioos:station:SCCF:11:1,2017-10-08T06:00:00Z,26.4679,-82.0631,1.74,28.07,2 
SCCF RECON,ioos:station:SCCF:11:1,2017-10-08T07:00:00Z,26.4679,-82.0631,1.74,28.15,2 
SCCF RECON,ioos:station:SCCF:11:1,2017-10-08T08:00:00Z,26.4679,-82.0631,1.74,28.16,2 
SCCF RECON,ioos:station:SCCF:11:1,2017-10-08T09:00:00Z,26.4679,-82.0631,1.74,28.05,2 
SCCF RECON,ioos:station:SCCF:11:1,2017-10-08T10:00:00Z,26.4679,-82.0631,1.74,27.82,2 
SCCF RECON,ioos:station:SCCF:11:1,2017-10-08T11:00:00Z,26.4679,-82.0631,1.74,27.74,2 
SCCF RECON,ioos:station:SCCF:11:1,2017-10-08T12:00:00Z,26.4679,-82.0631,1.74,27.7,2 
SCCF RECON,ioos:station:SCCF:11:1,2017-10-08T13:00:00Z,26.4679,-82.0631,1.74,27.78,2 
SCCF RECON,ioos:station:SCCF:11:1,2017-10-08T14:00:00Z,26.4679,-82.0631,1.74,28.05,2 
SCCF RECON,ioos:station:SCCF:11:1,2017-10-08T15:00:00Z,26.4679,-82.0631,1.74,28.34,2 
SCCF RECON,ioos:station:SCCF:11:1,2017-10-08T16:00:00Z,26.4679,-82.0631,1.74,28.42,2 
SCCF RECON,ioos:station:SCCF:11:1,2017-10-08T17:00:00Z,26.4679,-82.0631,1.74,28.88,2 
SCCF RECON,ioos:station:SCCF:11:1,2017-10-08T18:00:00Z,26.4679,-82.0631,1.74,28.31,2 
SCCF RECON,ioos:station:SCCF:11:1,2017-10-08T19:00:00Z,26.4679,-82.0631,1.74,28.23,2 
SCCF RECON,ioos:station:SCCF:11:1,2017-10-08T20:00:00Z,26.4679,-82.0631,1.74,28.4,2 
SCCF RECON,ioos:station:SCCF:11:1,2017-10-08T21:00:00Z,26.4679,-82.0631,1.74,28.49,2 
SCCF RECON,ioos:station:SCCF:11:1,2017-10-08T22:00:00Z,26.4679,-82.0631,1.74,28.54,2 
SCCF RECON,ioos:station:SCCF:11:1,2017-10-09T08:00:00Z,26.4679,-82.0631,1.74,28.74,2 
SCCF RECON,ioos:station:SCCF:11:1,2017-10-09T09:00:00Z,26.4679,-82.0631,1.74,28.75,2 
SCCF RECON,ioos:station:SCCF:11:1,2017-10-09T11:00:00Z,26.4679,-82.0631,1.74,28.65,2 
SCCF RECON,ioos:station:SCCF:11:1,2017-10-09T12:00:00Z,26.4679,-82.0631,1.74,28.62,2 
SCCF RECON,ioos:station:SCCF:11:1,2017-10-09T13:00:00Z,26.4679,-82.0631,1.74,28.66,2 
SCCF RECON,ioos:station:SCCF:11:1,2017-10-09T14:00:00Z,26.4679,-82.0631,1.74,28.79,2 
SCCF RECON,ioos:station:SCCF:11:1,2017-10-09T15:00:00Z,26.4679,-82.0631,1.74,29.02,2 
SCCF RECON,ioos:station:SCCF:11:1,2017-10-09T16:00:00Z,26.4679,-82.0631,1.74,29.03,2 
SCCF RECON,ioos:station:SCCF:11:1,2017-10-09T18:00:00Z,26.4679,-82.0631,1.74,29.43,2 
SCCF RECON,ioos:station:SCCF:11:1,2017-10-09T19:00:00Z,26.4679,-82.0631,1.74,29.21,2 
SCCF RECON,ioos:station:SCCF:11:1,2017-10-09T20:00:00Z,26.4679,-82.0631,1.74,29.17,2 
SCCF RECON,ioos:station:SCCF:11:1,2017-10-09T21:00:00Z,26.4679,-82.0631,1.74,28.95,2 
SCCF RECON,ioos:station:SCCF:11:1,2017-10-09T22:00:00Z,26.4679,-82.0631,1.74,28.86,2 
SCCF RECON,ioos:station:SCCF:11:1,2017-10-10T05:00:00Z,26.4679,-82.0631,1.74,29.7,2 
SCCF RECON,ioos:station:SCCF:11:1,2017-10-10T12:00:00Z,26.4679,-82.0631,1.74,28.77,2 
SCCF RECON,ioos:station:SCCF:11:1,2017-10-10T13:00:00Z,26.4679,-82.0631,1.74,28.92,2 
SCCF RECON,ioos:station:SCCF:11:1,2017-10-10T14:00:00Z,26.4679,-82.0631,1.74,29.02,2 
SCCF RECON,ioos:station:SCCF:11:1,2017-10-10T15:00:00Z,26.4679,-82.0631,1.74,29.22,2 
SCCF RECON,ioos:station:SCCF:11:1,2017-10-10T16:00:00Z,26.4679,-82.0631,1.74,29.51,2 
SCCF RECON,ioos:station:SCCF:11:1,2017-10-10T17:00:00Z,26.4679,-82.0631,1.74,29.55,2 
SCCF RECON,ioos:station:SCCF:11:1,2017-10-10T18:00:00Z,26.4679,-82.0631,1.74,29.62,2 
SCCF RECON,ioos:station:SCCF:11:1,2017-10-10T19:00:00Z,26.4679,-82.0631,1.74,29.9,2 
SCCF RECON,ioos:station:SCCF:11:1,2017-10-10T20:00:00Z,26.4679,-82.0631,1.74,29.6,2 
SCCF RECON,ioos:station:SCCF:11:1,2017-10-10T21:00:00Z,26.4679,-82.0631,1.74,29.42,2 
SCCF RECON,ioos:station:SCCF:11:1,2017-10-10T22:00:00Z,26.4679,-82.0631,1.74,29.13,2 
SCCF RECON,ioos:station:SCCF:11:1,2017-10-11T12:00:00Z,26.4679,-82.0631,1.74,28.8,2 
SCCF RECON,ioos:station:SCCF:11:1,2017-10-11T13:00:00Z,26.4679,-82.0631,1.74,28.74,2 
SCCF RECON,ioos:station:SCCF:11:1,2017-10-11T14:00:00Z,26.4679,-82.0631,1.74,29.06,2 
SCCF RECON,ioos:station:SCCF:11:1,2017-10-11T15:00:00Z,26.4679,-82.0631,1.74,29.22,2 
SCCF RECON,ioos:station:SCCF:11:1,2017-10-11T16:00:00Z,26.4679,-82.0631,1.74,29.51,2 
SCCF RECON,ioos:station:SCCF:11:1,2017-10-11T17:00:00Z,26.4679,-82.0631,1.74,29.58,2 
SCCF RECON,ioos:station:SCCF:11:1,2017-10-11T18:00:00Z,26.4679,-82.0631,1.74,29.63,2 
SCCF RECON,ioos:station:SCCF:11:1,2017-10-11T19:00:00Z,26.4679,-82.0631,1.74,29.52,2 
SCCF RECON,ioos:station:SCCF:11:1,2017-10-11T20:00:00Z,26.4679,-82.0631,1.74,29.59,2 
SCCF RECON,ioos:station:SCCF:11:1,2017-10-11T21:00:00Z,26.4679,-82.0631,1.74,29.69,2 
SCCF RECON,ioos:station:SCCF:11:1,2017-10-11T22:00:00Z,26.4679,-82.0631,1.74,29.67,2 
SCCF RECON,ioos:station:SCCF:11:1,2017-10-12T04:00:00Z,26.4679,-82.0631,1.74,29.61,2 
SCCF RECON,ioos:station:SCCF:11:1,2017-10-12T06:00:00Z,26.4679,-82.0631,1.74,29.45,2 
SCCF RECON,ioos:station:SCCF:11:1,2017-10-12T08:00:00Z,26.4679,-82.0631,1.74,29.15,2 
SCCF RECON,ioos:station:SCCF:11:1,2017-10-12T12:00:00Z,26.4679,-82.0631,1.74,28.87,2 
SCCF RECON,ioos:station:SCCF:11:1,2017-10-12T13:00:00Z,26.4679,-82.0631,1.74,28.36,2 
SCCF RECON,ioos:station:SCCF:11:1,2017-10-12T14:00:00Z,26.4679,-82.0631,1.74,27.94,2 
SCCF RECON,ioos:station:SCCF:11:1,2017-10-12T15:00:00Z,26.4679,-82.0631,1.74,28.05,2 
SCCF RECON,ioos:station:SCCF:11:1,2017-10-12T16:00:00Z,26.4679,-82.0631,1.74,28.26,2 
SCCF RECON,ioos:station:SCCF:11:1,2017-10-12T17:00:00Z,26.4679,-82.0631,1.74,28.49,2 
SCCF RECON,ioos:station:SCCF:11:1,2017-10-12T18:00:00Z,26.4679,-82.0631,1.74,28.64,2 
SCCF RECON,ioos:station:SCCF:11:1,2017-10-12T19:00:00Z,26.4679,-82.0631,1.74,28.85,2 
SCCF RECON,ioos:station:SCCF:11:1,2017-10-12T20:00:00Z,26.4679,-82.0631,1.74,28.78,2 
SCCF RECON,ioos:station:SCCF:11:1,2017-10-12T21:00:00Z,26.4679,-82.0631,1.74,28.87,2 
SCCF RECON,ioos:station:SCCF:11:1,2017-10-12T22:00:00Z,26.4679,-82.0631,1.74,28.87,2 
SCCF RECON,ioos:station:SCCF:11:1,2017-10-13T04:00:00Z,26.4679,-82.0631,1.74,28.61,2 
SCCF RECON,ioos:station:SCCF:11:1,2017-10-13T05:00:00Z,26.4679,-82.0631,1.74,28.61,2 
SCCF RECON,ioos:station:SCCF:11:1,2017-10-13T06:00:00Z,26.4679,-82.0631,1.74,28.57,2 
SCCF RECON,ioos:station:SCCF:11:1,2017-10-13T07:00:00Z,26.4679,-82.0631,1.74,28.61,2 
SCCF RECON,ioos:station:SCCF:11:1,2017-10-13T08:00:00Z,26.4679,-82.0631,1.74,28.34,2 
SCCF RECON,ioos:station:SCCF:11:1,2017-10-13T09:00:00Z,26.4679,-82.0631,1.74,28.43,2 
SCCF RECON,ioos:station:SCCF:11:1,2017-10-13T10:00:00Z,26.4679,-82.0631,1.74,27.93,2 
SCCF RECON,ioos:station:SCCF:11:1,2017-10-13T11:00:00Z,26.4679,-82.0631,1.74,27.85,2 
SCCF RECON,ioos:station:SCCF:11:1,2017-10-13T12:00:00Z,26.4679,-82.0631,1.74,27.4,2 
SCCF RECON,ioos:station:SCCF:11:1,2017-10-13T13:00:00Z,26.4679,-82.0631,1.74,28.2,2 
SCCF RECON,ioos:station:SCCF:11:1,2017-10-13T14:00:00Z,26.4679,-82.0631,1.74,28.09,2 
SCCF RECON,ioos:station:SCCF:11:1,2017-10-13T15:00:00Z,26.4679,-82.0631,1.74,27.88,2 
SCCF RECON,ioos:station:SCCF:11:1,2017-10-13T16:00:00Z,26.4679,-82.0631,1.74,28.15,2 
SCCF RECON,ioos:station:SCCF:11:1,2017-10-13T17:00:00Z,26.4679,-82.0631,1.74,28.15,2 
SCCF RECON,ioos:station:SCCF:11:1,2017-10-13T18:00:00Z,26.4679,-82.0631,1.74,28.73,2 
SCCF RECON,ioos:station:SCCF:11:1,2017-10-13T19:00:00Z,26.4679,-82.0631,1.74,29.13,2 
SCCF RECON,ioos:station:SCCF:11:1,2017-10-13T20:00:00Z,26.4679,-82.0631,1.74,29.04,2 
SCCF RECON,ioos:station:SCCF:11:1,2017-10-13T21:00:00Z,26.4679,-82.0631,1.74,29.15,2 
SCCF RECON,ioos:station:SCCF:11:1,2017-10-13T22:00:00Z,26.4679,-82.0631,1.74,29.48,2 
SCCF RECON,ioos:station:SCCF:11:1,2017-10-14T04:00:00Z,26.4679,-82.0631,1.74,28.7,2 
SCCF RECON,ioos:station:SCCF:11:1,2017-10-14T05:00:00Z,26.4679,-82.0631,1.74,28.71,2 
SCCF RECON,ioos:station:SCCF:11:1,2017-10-14T06:00:00Z,26.4679,-82.0631,1.74,28.81,2 
SCCF RECON,ioos:station:SCCF:11:1,2017-10-14T07:00:00Z,26.4679,-82.0631,1.74,28.71,2 
SCCF RECON,ioos:station:SCCF:11:1,2017-10-14T09:00:00Z,26.4679,-82.0631,1.74,28.15,2 
SCCF RECON,ioos:station:SCCF:11:1,2017-10-14T10:00:00Z,26.4679,-82.0631,1.74,27.94,2 
SCCF RECON,ioos:station:SCCF:11:1,2017-10-14T11:00:00Z,26.4679,-82.0631,1.74,28.2,2 
SCCF RECON,ioos:station:SCCF:11:1,2017-10-14T12:00:00Z,26.4679,-82.0631,1.74,28.23,2 
SCCF RECON,ioos:station:SCCF:11:1,2017-10-14T13:00:00Z,26.4679,-82.0631,1.74,28.34,2 
SCCF RECON,ioos:station:SCCF:11:1,2017-10-14T14:00:00Z,26.4679,-82.0631,1.74,28.29,2 
SCCF RECON,ioos:station:SCCF:11:1,2017-10-14T15:00:00Z,26.4679,-82.0631,1.74,28.39,2 
SCCF RECON,ioos:station:SCCF:11:1,2017-10-14T16:00:00Z,26.4679,-82.0631,1.74,28.49,2 
SCCF RECON,ioos:station:SCCF:11:1,2017-10-14T17:00:00Z,26.4679,-82.0631,1.74,29.03,2 
SCCF RECON,ioos:station:SCCF:11:1,2017-10-14T18:00:00Z,26.4679,-82.0631,1.74,29.38,2 
SCCF RECON,ioos:station:SCCF:11:1,2017-10-14T19:00:00Z,26.4679,-82.0631,1.74,29.7,2 
SCCF RECON,ioos:station:SCCF:11:1,2017-10-14T20:00:00Z,26.4679,-82.0631,1.74,29.85,2 
SCCF RECON,ioos:station:SCCF:11:1,2017-10-14T21:00:00Z,26.4679,-82.0631,1.74,29.85,2 
SCCF RECON,ioos:station:SCCF:11:1,2017-10-14T22:00:00Z,26.4679,-82.0631,1.74,29.46,2 
SCCF RECON,ioos:station:SCCF:11:1,2017-10-15T04:00:00Z,26.4679,-82.0631,1.74,28.63,2 
SCCF RECON,ioos:station:SCCF:11:1,2017-10-15T05:00:00Z,26.4679,-82.0631,1.74,28.59,2 
SCCF RECON,ioos:station:SCCF:11:1,2017-10-15T07:00:00Z,26.4679,-82.0631,1.74,28.55,2 
SCCF RECON,ioos:station:SCCF:11:1,2017-10-15T09:00:00Z,26.4679,-82.0631,1.74,28.51,2 
SCCF RECON,ioos:station:SCCF:11:1,2017-10-15T10:00:00Z,26.4679,-82.0631,1.74,28.45,2 
SCCF RECON,ioos:station:SCCF:11:1,2017-10-15T11:00:00Z,26.4679,-82.0631,1.74,27.64,2 
SCCF RECON,ioos:station:SCCF:11:1,2017-10-15T12:00:00Z,26.4679,-82.0631,1.74,27.65,2 
SCCF RECON,ioos:station:SCCF:11:1,2017-10-15T13:00:00Z,26.4679,-82.0631,1.74,27.94,2 
SCCF RECON,ioos:station:SCCF:11:1,2017-10-15T14:00:00Z,26.4679,-82.0631,1.74,28.23,2 
SCCF RECON,ioos:station:SCCF:11:1,2017-10-15T15:00:00Z,26.4679,-82.0631,1.74,28.19,2 
SCCF RECON,ioos:station:SCCF:11:1,2017-10-15T16:00:00Z,26.4679,-82.0631,1.74,28.36,2 
SCCF RECON,ioos:station:SCCF:11:1,2017-10-15T17:00:00Z,26.4679,-82.0631,1.74,28.78,2 
SCCF RECON,ioos:station:SCCF:11:1,2017-10-15T18:00:00Z,26.4679,-82.0631,1.74,29.0,2 
SCCF RECON,ioos:station:SCCF:11:1,2017-10-15T19:00:00Z,26.4679,-82.0631,1.74,29.41,2 
SCCF RECON,ioos:station:SCCF:11:1,2017-10-15T20:00:00Z,26.4679,-82.0631,1.74,29.76,2 
SCCF RECON,ioos:station:SCCF:11:1,2017-10-15T21:00:00Z,26.4679,-82.0631,1.74,30.03,2 
SCCF RECON,ioos:station:SCCF:11:1,2017-10-15T22:00:00Z,26.4679,-82.0631,1.74,30.02,2 
SCCF RECON,ioos:station:SCCF:11:1,2017-10-16T04:00:00Z,26.4679,-82.0631,1.74,28.85,2 
SCCF RECON,ioos:station:SCCF:11:1,2017-10-16T05:00:00Z,26.4679,-82.0631,1.74,28.93,2 
SCCF RECON,ioos:station:SCCF:11:1,2017-10-16T08:00:00Z,26.4679,-82.0631,1.74,28.8,2 
SCCF RECON,ioos:station:SCCF:11:1,2017-10-16T09:00:00Z,26.4679,-82.0631,1.74,28.72,2 
SCCF RECON,ioos:station:SCCF:11:1,2017-10-16T10:00:00Z,26.4679,-82.0631,1.74,28.71,2 
SCCF RECON,ioos:station:SCCF:11:1,2017-10-16T12:00:00Z,26.4679,-82.0631,1.74,28.48,2 
SCCF RECON,ioos:station:SCCF:11:1,2017-10-16T13:00:00Z,26.4679,-82.0631,1.74,28.45,2 
SCCF RECON,ioos:station:SCCF:11:1,2017-10-16T14:00:00Z,26.4679,-82.0631,1.74,28.51,2 
SCCF RECON,ioos:station:SCCF:11:1,2017-10-16T15:00:00Z,26.4679,-82.0631,1.74,28.59,2 
SCCF RECON,ioos:station:SCCF:11:1,2017-10-16T16:00:00Z,26.4679,-82.0631,1.74,28.61,2 
SCCF RECON,ioos:station:SCCF:11:1,2017-10-16T17:00:00Z,26.4679,-82.0631,1.74,28.65,2 
SCCF RECON,ioos:station:SCCF:11:1,2017-10-16T18:00:00Z,26.4679,-82.0631,1.74,28.92,2 
SCCF RECON,ioos:station:SCCF:11:1,2017-10-16T19:00:00Z,26.4679,-82.0631,1.74,29.42,2 
SCCF RECON,ioos:station:SCCF:11:1,2017-10-16T20:00:00Z,26.4679,-82.0631,1.74,29.92,2 
SCCF RECON,ioos:station:SCCF:11:1,2017-10-16T21:00:00Z,26.4679,-82.0631,1.74,30.11,2 
SCCF RECON,ioos:station:SCCF:11:1,2017-10-16T22:00:00Z,26.4679,-82.0631,1.74,30.17,2 
SCCF RECON,ioos:station:SCCF:11:1,2017-10-17T05:00:00Z,26.4679,-82.0631,1.74,28.89,2 
SCCF RECON,ioos:station:SCCF:11:1,2017-10-17T09:00:00Z,26.4679,-82.0631,1.74,29.02,2 
SCCF RECON,ioos:station:SCCF:11:1,2017-10-17T11:00:00Z,26.4679,-82.0631,1.74,28.76,2 
SCCF RECON,ioos:station:SCCF:11:1,2017-10-17T12:00:00Z,26.4679,-82.0631,1.74,28.46,2 
SCCF RECON,ioos:station:SCCF:11:1,2017-10-17T13:00:00Z,26.4679,-82.0631,1.74,28.55,2 
SCCF RECON,ioos:station:SCCF:11:1,2017-10-17T14:00:00Z,26.4679,-82.0631,1.74,28.58,2 
SCCF RECON,ioos:station:SCCF:11:1,2017-10-17T15:00:00Z,26.4679,-82.0631,1.74,28.61,2 
SCCF RECON,ioos:station:SCCF:11:1,2017-10-17T16:00:00Z,26.4679,-82.0631,1.74,28.69,2 
SCCF RECON,ioos:station:SCCF:11:1,2017-10-17T17:00:00Z,26.4679,-82.0631,1.74,28.83,2 
SCCF RECON,ioos:station:SCCF:11:1,2017-10-17T18:00:00Z,26.4679,-82.0631,1.74,28.85,2 
SCCF RECON,ioos:station:SCCF:11:1,2017-10-17T19:00:00Z,26.4679,-82.0631,1.74,28.69,2 
SCCF RECON,ioos:station:SCCF:11:1,2017-10-17T20:00:00Z,26.4679,-82.0631,1.74,28.74,2 
SCCF RECON,ioos:station:SCCF:11:1,2017-10-17T21:00:00Z,26.4679,-82.0631,1.74,28.84,2 
SCCF RECON,ioos:station:SCCF:11:1,2017-10-17T22:00:00Z,26.4679,-82.0631,1.74,28.79,2 
SCCF RECON,ioos:station:SCCF:11:1,2017-10-18T04:00:00Z,26.4679,-82.0631,1.74,28.18,2 
SCCF RECON,ioos:station:SCCF:11:1,2017-10-18T05:00:00Z,26.4679,-82.0631,1.74,28.14,2 
SCCF RECON,ioos:station:SCCF:11:1,2017-10-18T06:00:00Z,26.4679,-82.0631,1.74,28.16,2 
SCCF RECON,ioos:station:SCCF:11:1,2017-10-18T07:00:00Z,26.4679,-82.0631,1.74,27.86,2 
SCCF RECON,ioos:station:SCCF:11:1,2017-10-18T08:00:00Z,26.4679,-82.0631,1.74,27.63,2 
SCCF RECON,ioos:station:SCCF:11:1,2017-10-18T09:00:00Z,26.4679,-82.0631,1.74,27.48,2 
SCCF RECON,ioos:station:SCCF:11:1,2017-10-18T10:00:00Z,26.4679,-82.0631,1.74,27.34,2 
SCCF RECON,ioos:station:SCCF:11:1,2017-10-18T11:00:00Z,26.4679,-82.0631,1.74,27.2,2 